Flag for South Korea Weather past 2 weeks in Seoul, South Korea

Now
84 °F

Scattered clouds.


Feels Like: 83 °F
Forecast: 65 / 81 °F
Wind: 13 mph from West

Location: Seoul / Kimp'O International Airport

Current Time: Jul 6, 2015 at 4:43:01 PM

Latest Report: Jul 6, 2015 at 4:00 PM


Visibility: N/A

Pressure: 29.80 "Hg

Humidity: 40%

Dew point: 57 °F

Location of SeoulLocation

Historic Weather in Seoul — Graph

°F

Seoul temperature yesterday

Maximum temperature yesterday: 84 °F (at 1:00 PM)
Minimum temperature yesterday: 64 °F (at 5:00 AM)
Average temperature yesterday: 73 °F

Past Weeks' High & Low Weather Summary

 TemperatureHumidityPressure
High86 °F (Jun 24, 12:00 PM)94% (Jun 24, 5:00 AM)29.89 "Hg (Jun 24, 5:00 AM)
Low61 °F (Jul 4, 4:00 AM)30% (Jul 2, 3:00 PM)29.33 "Hg (Jul 1, 3:00 AM)
Average74 °F63%29.69 "Hg
* Reported Jun 21 3:00 PM — Jul 6 3:00 PM, Seoul, Weather by CustomWeather, © 2015

Note: Actual official high and low records may vary slightly from our data, if they occured in-between our weather recording intervals... More about our weather records

Advertising

Seoul weather history for previous 24 hours

 ConditionsComfort  
Time TempWeatherWind HumidityBarometerVisibility
3:00 PM
Mon, Jul 6
86 °FScattered clouds.9 mph38%29.80 "HgN/A
2:00 PM86 °FScattered clouds.6 mph33%29.83 "HgN/A
1:00 PM84 °FSunny.3 mph35%29.83 "Hg10 mi
12:00 PM82 °FPassing clouds.6 mph37%29.86 "HgN/A
11:00 AM81 °FSunny.3 mph39%29.86 "Hg10 mi
10:00 AM77 °FPassing clouds.3 mph47%29.89 "HgN/A
9:00 AM77 °FPassing clouds.3 mph51%29.89 "HgN/A
8:00 AM72 °FPassing clouds.2 mph73%29.89 "Hg5 mi
7:00 AM66 °FPassing clouds.1 mph88%29.89 "Hg5 mi
6:00 AM64 °FClear.1 mph94%29.89 "Hg4 mi
5:00 AM66 °FPassing clouds.2 mph83%29.86 "Hg4 mi
4:00 AM66 °FPartly cloudy.3 mph83%29.86 "Hg4 mi
3:00 AM66 °FClear.2 mph83%29.86 "Hg5 mi
2:00 AM66 °FClear.1 mph83%29.86 "Hg5 mi
1:00 AM70 °FPassing clouds.5 mph78%29.86 "HgN/A
12:00 AM70 °FPassing clouds.5 mph78%29.86 "HgN/A
11:00 PM
Sun, Jul 5
72 °FPassing clouds.6 mph65%29.86 "HgN/A
10:00 PM72 °FPassing clouds.6 mph65%29.86 "HgN/A
9:00 PM70 °FPassing clouds.5 mph69%29.83 "HgN/A
8:00 PM73 °FPassing clouds.3 mph53%29.83 "HgN/A
7:00 PM75 °FPartly sunny.7 mph47%29.83 "HgN/A
6:00 PM77 °FPartly sunny.9 mph39%29.83 "HgN/A
5:00 PM79 °FScattered clouds.13 mph48%29.80 "HgN/A
4:00 PM81 °FScattered clouds.10 mph39%29.83 "HgN/A
Weather by CustomWeather, © 2015

See weather overviewHow to use our weather pages